Overview Statistics Trail Chart Weather Telemetry Raw packets
 

This is the latest recevied weather packets stored in our database for station/object EA1GEC-10. If no packets are shown the sender has not sent any weather packets the latest 10 day(s).

<< 27 28 29 30 31 32 33 >>
Time Temp. Humidity Pressure Rain* Wind** Luminosity Snow
1777154089 17.22° C 64% 1026.3 hPa - - - -
1777153189 17.22° C 63% 1026.3 hPa - - - -
1777152289 17.22° C 62% 1026.2 hPa - - - -
1777151438 16.67° C 62% 1026.2 hPa - - - -
1777151389 16.67° C 62% 1026.2 hPa - - - -
1777150489 17.22° C 62% 1026.2 hPa - - - -
1777149588 17.22° C 61% 1026.1 hPa - - - -
1777148690 17.22° C 61% 1026.1 hPa - - - -
1777147793 17.22° C 60% 1026 hPa - - - -
1777146887 17.78° C 59% 1025.7 hPa - - - -
1777145996 17.78° C 57% 1025.6 hPa - - - -
1777145087 18.33° C 57% 1025.4 hPa - - - -
1777144187 18.33° C 57% 1025.2 hPa - - - -
1777143287 18.33° C 56% 1025 hPa - - - -
1777142386 18.89° C 56% 1025 hPa - - - -
1777141498 18.89° C 55% 1024.9 hPa - - - -
1777139696 19.44° C 54% 1024.8 hPa - - - -
1777138786 19.44° C 53% 1024.8 hPa - - - -
1777137886 20° C 53% 1024.7 hPa - - - -
1777136986 20° C 52% 1024.7 hPa - - - -
1777136086 20.56° C 51% 1024.6 hPa - - - -
1777135186 20.56° C 50% 1024.5 hPa - - - -
1777134286 20.56° C 50% 1024.3 hPa - - - -
1777133386 21.11° C 49% 1024.2 hPa - - - -
1777132485 21.11° C 49% 1024.2 hPa - - - -

* Rain since midnight (hover to see other rain measurements)
** Current wind speed in m/s (hover to see current wind gust speed)